Preview of NWS' New Version of Forecast
This preview is not operational and should not be used for support decisions.

Regional Weather Roundup (RWR)

Issued by National Weather Service (NWS)

                            
000
ASUS43 KLSX 172257
RWRMO 

WEATHER SUMMARY FOR MISSOURI
NATIONAL WEATHER SERVICE SPRINGFIELD MO
600 PM CDT MON JUN 17 2019

NOTE: "FAIR" INDICATES FEW OR NO CLOUDS BELOW 12,000 FEET WITH NO
       SIGNIFICANT WEATHER AND/OR OBSTRUCTIONS TO VISIBILITY.
       CURRENT SKY AND/OR WEATHER CONDITIONS ARE NOT AVAILABLE FOR
       CHILLICOTHE AND FARMINGTON.

MOZ001>031-035>038-043-044-053-054-180000-
...NORTHERN AND WESTERN MISSOURI...
  
CITY           SKY/WX    TMP DP  RH WIND       PRES   REMARKS
KANSAS CTY INT PTSUNNY   81  62  52 NE8       29.91F                  
LEE'S SUMMIT   SUNNY     81  65  58 E9        29.91S                  
ST JOSEPH      SUNNY     82  59  45 NE7       29.91F                  
CHILLICOTHE      N/A     81  65  58 VRB6      29.93F                  
KIRKSVILLE     CLOUDY    75  64  69 NE8       29.97R                  
     
$$
MOZ066>068-077>081-088>096-101>105-180000-
...SOUTHWEST MISSOURI...
  
CITY           SKY/WX    TMP DP  RH WIND       PRES   REMARKS
SPRINGFIELD    MOSUNNY   77  65  66 CALM      29.90F                  
JOPLIN         SUNNY     80  66  62 NE3       29.90F                  
BRANSON        LGT RAIN  72  68  88 S9        29.92R                  
               
$$
MOZ032>034-039>042-045>050-055>058-069>072-180000-
...CENTRAL MISSOURI...  
  
CITY           SKY/WX    TMP DP  RH WIND       PRES   REMARKS
COLUMBIA       NOT AVBL                                               
ROLLA          MOSUNNY   68  64  87 NE7       29.95F                  
SEDALIA        PTSUNNY   71  68  90 E7        29.93S                  
WHITEMAN AFB   MOSUNNY   75  68  78 NE7       29.87F                  
WARRENSBURG    PTSUNNY   73  66  78 NE3       29.92S                  
               
$$
MOZ051-052-059>065-180000-
...EAST CENTRAL MISSOURI...
  
CITY           SKY/WX    TMP DP  RH WIND       PRES   REMARKS
ST LOUIS INTL  CLOUDY    74  70  87 N6        29.93S FOG              
                   
$$
MOZ072>076-082>087-097>100-106>115-180000-
...SOUTH CENTRAL AND SOUTHEAST MISSOURI...
  
CITY           SKY/WX    TMP DP  RH WIND       PRES   REMARKS
CAPE GIRARDEAU FAIR      79  65  62 W8        29.89S                  
POPLAR BLUFF   FAIR      77  70  79 SW3       29.89F                  
WEST PLAINS    MOSUNNY   74  69  85 NE8       29.93S                  
                                       
$$